User: anonymous   Login
Location: Unspecified
(0.0000°N, 0.0000°E)
Time: 11:05:13
(UTC+00:00)
Language:

TBA - TO BE ASSIGNED - Orbit

View from above orbital plane
View from above orbital plane
View from above satellite
View from above satellite

Ground track
Ground track

The orbit is defined by the following mean orbital elements,

1 68109U          26145.63158552 +.00000000 +00000-0 +56255-3 0 00006
2 68109  97.2837 106.2388 0001982  92.4411 267.7058 15.33451062    06
Epoch (UTC): 25 May 2026 15:09:28
Eccentricity: 0.0001982
inclination: 97.2837°
perigee height: 464 km
apogee height: 467 km
right ascension of ascending node: 106.2388°
argument of perigee: 92.4411°
revolutions per day: 15.33451062
mean anomaly at epoch: 267.7058°

The dashed part of the orbit path shows where the satellite is in the earth's shadow,  

DLR